Location: Monteux
(44.0348°N, 4.9972°E)
Time: 17:11:12
(UTC+00:00)

Cosmos 1939 Rocket - Pass Details

Date: 30 November 2020
Orbit: 532 x 584 km, 97.4° (Epoch: 18 January)

Event Time Altitude Azimuth Distance (km) Brightness Sun altitude
Rises 17:32:30 0° 160° (SSE) 2,670 6.3 -15.6°
Reaches altitude 10° 17:34:36 10° 158° (SSE) 1,788 5.4 -15.9°
Maximum altitude 17:38:26 68° 75° (ENE) 586 2.7 -16.6°
Drops below altitude 10° 17:42:21 10° 353° (N) 1,825 5.4 -17.3°
Sets 17:44:30 0° 351° (N) 2,732 6.3 -17.7°
